World > North America > United States > Washington   City of Washington, DC

Washington, DC Hourly Weather Conditions

Feedback E-mail the Weather

Quick WX

Washington, DC Weather Maps

°F °C°F °C
Washington Weather Map
UTC Time: 2/3/2023, 17:48
Your Time:

Washington, DC Regional Weather

Expires:202302031800;;738871
ASUS41 KLWX 031713
RWRLWX

REGIONAL WEATHER ROUNDUP
NATIONAL WEATHER SERVICE BALTIMORE MD/WASHINGTON DC
1200 PM EST FRI FEB 03 2023

Note: "FAIR" indicates few or no clouds below 12,000 feet
with no significant weather and/or obstructions to visibility.
 TC=TEMPERATURE CELSIUS

 * =Non NWS site. Station does not report precipitation (e.g. rain,
    snow, etc.), thunder, or fog.


DCZ001-MDZ009-015-VAZ040>042-051-053>054-031800-
WASHINGTON METRO
  
CITY           SKY/WX    TMP DP  RH WIND       PRES   REMARKS
WASHINGTON NAT MOSUNNY   32   3  29 NW23G36   30.19R WCI  19          
DULLES         MOSUNNY   29   1  30 NW23G35   30.18R WCI  15          
ANDREWS AFB    SUNNY     30   3  32 NW21G26   30.14R WCI  17          
FT BELVOIR     SUNNY     31   1  27 NW23G31   30.17R WCI  17          
QUANTICO       SUNNY     33  32  96 N18G30    30.20R WCI  22          
COLLEGE PARK*  SUNNY     30   1  28 W16G24    30.18S WCI  19          
LEESBURG*      SUNNY     30   5  34 N21G31    30.20S WCI  17          
MANASSAS*      MOSUNNY   30   7  37 N20G33    30.20R WCI  17          
GAITHERSBURG*  SUNNY     27   4  37 NW16G30   30.15S WCI  15          

$$


SKY/WX - Weather  TMP - Temperature  DP - Dew Point  RH - Humidity
WIND - Wind Direction/Speed PRES - Barometric Pressure VSB - Visibility
WCI - Wind Chill Index E13G22 Wind - East Wind 13 mph/Gusts of 22 mph

Trending Headlines

Trending Entertainment Headlines

Washington Radar Loop

Use the map search tool if you want to place a location marker on the radar map...

Washington Quick Facts

National Two Day Weather Forecast


E-mail the Washington Weather Forecast

Voice your opinion or tell us about page issues...